Tracking 19832 objects as of 24-Aug-2019
HD Live streaming from Space Station
objects crossing your sky now

SL-12 DEB

Track SL-12 DEB now!
10-day predictions


NORAD ID: 41703
Int'l Code: 2010-007V
Perigee: 614.7 km
Apogee: 18,587.0 km
Inclination: 64.9 °
Period: 334.8 minutes
Semi major axis: 15971 km
RCS: Unknown
Launch date: March 1, 2010
Source: Commonwealth of Independent States (former USSR) (CIS)
Launch site: TYURATAM MISSILE AND SPACE COMPLEX (TTMTR)

Note: This is SATELLITE DEBRIS
aabbcc
Your satellite tracking list
Your tracking list is empty




NASA's NSSDC Master Catalog

Two Line Element Set (TLE):
1 41703U 10007V   19235.47467034 -.00000431 +00000-0 -21119-2 0  9994
2 41703 064.9325 356.0662 5626271 039.0943 350.3928 04.30100819067617
Source of the keplerian elements: AFSPC